{"data":{"norad_id":68807,"intl_designator":"2026-089F","name":"STARLINK-37366","alt_names":[],"object_type":"PAYLOAD","status":"ACTIVE","operator":null,"country":"US","launch_date":"2026-04-23","launch_site_code":"AFWTR","launch_vehicle":null,"mission":null,"orbit_class":"UNKNOWN","rcs_meters":null,"size_class":null,"mass_kg":null,"dimensions":null,"purposes":["comms"],"wikipedia_slug":null,"has_3d_model":false,"image_url":null,"decayed_at":null,"tle_current":{"epoch":"2026-05-25T02:50:48.149376Z","epoch_age_seconds":68325,"freshness":"FRESH","line1":"1 68807U 26089F   26145.11861284  .00178785  00000+0  11712-2 0  9992","line2":"2 68807  97.2832 351.7556 0002216  71.9858 288.1649 15.75256999  5060","mean_motion":15.75256999,"eccentricity":0.0002216,"inclination_deg":97.2832,"raan_deg":351.7556,"arg_perigee_deg":71.9858,"mean_anomaly_deg":288.1649,"bstar":0.0011712,"rev_number":506,"period_min":91.413655099716,"perigee_km":342.41035694043,"apogee_km":345.38956372125,"semimajor_km":6722.0369603308,"source":"CELESTRAK","updated_at":"2026-05-25T13:38:22.040833Z"}}}